| time (UTC) | temp F | wind direction | speed knots | gust knots | rain 1hr in | rain 24hr in | rain mn in | humidity % | barometer mb |
| 20260507040025 | 48 | 332 | 0.0 | 2.6 | 0.00 | 0.35 | 0.00 | 90 | 1011.1 |
| 20260507035025 | 48 | 260 | 0.0 | 0.0 | 0.00 | 0.35 | 0.35 | 91 | 1010.9 |
| 20260507034025 | 49 | 260 | 0.0 | 0.0 | 0.00 | 0.35 | 0.35 | 91 | 1011.3 |
| 20260507033025 | 49 | 259 | 0.0 | 0.9 | 0.00 | 0.35 | 0.35 | 90 | 1011.4 |
| 20260507031025 | 49 | 359 | 0.0 | 0.0 | 0.00 | 0.35 | 0.35 | 89 | 1011.0 |
| 20260507030024 | 49 | 359 | 0.0 | 0.0 | 0.00 | 0.35 | 0.35 | 88 | 1010.8 |
| 20260507025025 | 49 | 359 | 0.0 | 0.0 | 0.00 | 0.35 | 0.35 | 89 | 1010.8 |
| 20260507023025 | 50 | 359 | 0.0 | 0.9 | 0.00 | 0.35 | 0.35 | 89 | 1011.0 |
| 20260507022025 | 50 | 359 | 0.0 | 0.9 | 0.00 | 0.35 | 0.35 | 89 | 1011.2 |
| 20260507021025 | 50 | 359 | 0.0 | 0.0 | 0.00 | 0.35 | 0.35 | 89 | 1011.4 |
| 20260507020025 | 50 | 359 | 0.0 | 0.0 | 0.00 | 0.35 | 0.35 | 89 | 1011.5 |
| 20260507015025 | 50 | 359 | 0.0 | 0.0 | 0.00 | 0.35 | 0.35 | 89 | 1011.3 |
| 20260507014025 | 50 | 359 | 0.0 | 0.9 | 0.00 | 0.35 | 0.35 | 88 | 1011.4 |
| 20260507013025 | 50 | 359 | 0.9 | 2.6 | 0.00 | 0.35 | 0.35 | 88 | 1011.4 |
| 20260507011025 | 51 | 354 | 0.0 | 1.7 | 0.00 | 0.35 | 0.35 | 88 | 1011.4 |
| 20260507010025 | 51 | 323 | 0.9 | 1.7 | 0.00 | 0.35 | 0.35 | 87 | 1011.1 |
| 20260507005025 | 51 | 38 | 0.0 | 2.6 | 0.00 | 0.35 | 0.35 | 88 | 1010.8 |
| 20260507004025 | 51 | 315 | 0.9 | 2.6 | 0.00 | 0.35 | 0.35 | 87 | 1010.7 |
| 20260507003025 | 51 | 328 | 0.9 | 2.6 | 0.00 | 0.35 | 0.35 | 87 | 1010.5 |
| 20260507002024 | 52 | 16 | 0.0 | 5.2 | 0.00 | 0.35 | 0.35 | 88 | 1010.4 |
| 20260507001024 | 52 | 14 | 0.0 | 1.7 | 0.00 | 0.35 | 0.35 | 88 | 1009.9 |
| 20260507000024 | 52 | 359 | 0.0 | 0.0 | 0.00 | 0.35 | 0.35 | 88 | 1009.7 |
| 20260506234025 | 52 | 359 | 0.0 | 2.6 | 0.00 | 0.35 | 0.35 | 89 | 1009.4 |
| 20260506232025 | 53 | 354 | 1.7 | 4.3 | 0.00 | 0.35 | 0.35 | 88 | 1009.0 |
| 20260506231025 | 53 | 349 | 1.7 | 8.7 | 0.00 | 0.35 | 0.35 | 88 | 1008.8 |
| 20260506230025 | 53 | 317 | 5.2 | 11.3 | 0.00 | 0.35 | 0.35 | 87 | 1008.7 |
| 20260506225025 | 54 | 293 | 4.3 | 11.3 | 0.00 | 0.35 | 0.35 | 88 | 1008.7 |
| 20260506224025 | 54 | 308 | 4.3 | 11.3 | 0.00 | 0.35 | 0.35 | 89 | 1008.5 |
| 20260506223025 | 54 | 354 | 4.3 | 11.3 | 0.00 | 0.35 | 0.35 | 88 | 1008.2 |
| 20260506221025 | 56 | 328 | 2.6 | 10.4 | 0.00 | 0.35 | 0.35 | 88 | 1007.8 |
| 20260506214025 | 63 | 324 | 3.5 | 7.0 | 0.00 | 0.35 | 0.35 | 86 | 1006.7 |
| 20260506213025 | 63 | 258 | 0.9 | 5.2 | 0.00 | 0.35 | 0.35 | 87 | 1006.6 |
| 20260506212025 | 63 | 187 | 0.9 | 4.3 | 0.00 | 0.35 | 0.35 | 89 | 1006.5 |
| 20260506210025 | 62 | 216 | 2.6 | 7.8 | 0.00 | 0.35 | 0.35 | 88 | 1006.2 |
| 20260506204025 | 62 | 247 | 0.9 | 7.8 | 0.00 | 0.35 | 0.35 | 89 | 1006.0 |
| 20260506203025 | 62 | 243 | 0.9 | 4.3 | 0.00 | 0.35 | 0.35 | 91 | 1006.0 |
| 20260506202025 | 62 | 170 | 1.7 | 5.2 | 0.00 | 0.35 | 0.35 | 90 | 1006.0 |
| 20260506195025 | 61 | 256 | 2.6 | 7.0 | 0.00 | 0.35 | 0.35 | 91 | 1006.1 |
| 20260506194025 | 61 | 180 | 1.7 | 5.2 | 0.00 | 0.35 | 0.35 | 93 | 1006.1 |
| 20260506192025 | 61 | 171 | 2.6 | 7.8 | 0.00 | 0.35 | 0.35 | 93 | 1006.2 |
| 20260506191025 | 61 | 214 | 4.3 | 10.4 | 0.00 | 0.35 | 0.35 | 95 | 1006.3 |
| 20260506190024 | 61 | 243 | 4.3 | 13.0 | 0.00 | 0.35 | 0.35 | 96 | 1006.2 |
| 20260506185025 | 60 | 172 | 1.7 | 13.0 | 0.00 | 0.35 | 0.35 | 96 | 1006.2 |
| 20260506184026 | 59 | 174 | 2.6 | 7.0 | 0.00 | 0.35 | 0.35 | 97 | 1006.1 |
| 20260506182025 | 59 | 202 | 0.9 | 2.6 | 0.01 | 0.35 | 0.35 | 96 | 1006.4 |
| 20260506181025 | 59 | 252 | 1.7 | 7.8 | 0.01 | 0.35 | 0.35 | 96 | 1006.7 |
| 20260506175025 | 59 | 187 | 0.9 | 2.6 | 0.01 | 0.35 | 0.35 | 96 | 1006.5 |
| 20260506174025 | 58 | 253 | 0.9 | 4.3 | 0.01 | 0.35 | 0.35 | 96 | 1006.5 |
| 20260506173025 | 58 | 238 | 0.9 | 2.6 | 0.01 | 0.35 | 0.35 | 96 | 1006.5 |
| 20260506172025 | 58 | 237 | 0.9 | 4.3 | 0.00 | 0.34 | 0.34 | 96 | 1006.5 |
| 20260506171025 | 58 | 181 | 1.7 | 6.1 | 0.00 | 0.34 | 0.34 | 96 | 1006.6 |
| 20260506170025 | 58 | 203 | 1.7 | 7.8 | 0.00 | 0.34 | 0.34 | 95 | 1006.6 |
| 20260506164024 | 58 | 220 | 0.9 | 2.6 | 0.01 | 0.34 | 0.34 | 95 | 1006.6 |
| 20260506162025 | 58 | 173 | 0.9 | 6.1 | 0.02 | 0.34 | 0.34 | 95 | 1006.7 |
| 20260506161024 | 58 | 173 | 0.9 | 2.6 | 0.03 | 0.34 | 0.34 | 95 | 1006.7 |
| 20260506160024 | 58 | 177 | 0.9 | 2.6 | 0.04 | 0.34 | 0.34 | 95 | 1006.6 |
| 20260506155025 | 58 | 195 | 0.9 | 2.6 | 0.06 | 0.34 | 0.34 | 95 | 1006.5 |
| 20260506154024 | 58 | 169 | 0.9 | 2.6 | 0.07 | 0.33 | 0.33 | 95 | 1006.5 |
| 20260506153024 | 58 | 151 | 1.7 | 2.6 | 0.08 | 0.33 | 0.33 | 95 | 1006.3 |
| 20260506152025 | 58 | 151 | 0.9 | 2.6 | 0.09 | 0.32 | 0.32 | 95 | 1006.4 |
| 20260506151025 | 57 | 171 | 0.9 | 4.3 | 0.11 | 0.31 | 0.31 | 95 | 1006.5 |
| 20260506150025 | 58 | 177 | 0.9 | 2.6 | 0.12 | 0.30 | 0.30 | 94 | 1006.6 |
| 20260506145025 | 58 | 177 | 0.9 | 2.6 | 0.11 | 0.28 | 0.28 | 94 | 1006.8 |
| 20260506143024 | 58 | 167 | 0.9 | 4.3 | 0.11 | 0.25 | 0.25 | 94 | 1006.7 |
| 20260506142024 | 58 | 196 | 0.9 | 4.3 | 0.09 | 0.23 | 0.23 | 93 | 1006.6 |
| 20260506141025 | 58 | 166 | 1.7 | 4.3 | 0.08 | 0.20 | 0.20 | 93 | 1006.6 |
| 20260506135025 | 58 | 180 | 1.7 | 4.3 | 0.09 | 0.17 | 0.17 | 93 | 1006.6 |
| 20260506134024 | 58 | 183 | 0.9 | 2.6 | 0.11 | 0.16 | 0.16 | 92 | 1006.8 |
| 20260506133025 | 58 | 166 | 0.9 | 2.6 | 0.10 | 0.14 | 0.14 | 92 | 1006.8 |
| 20260506132025 | 58 | 180 | 2.6 | 4.3 | 0.11 | 0.14 | 0.14 | 91 | 1006.8 |
| 20260506130024 | 58 | 176 | 0.9 | 2.6 | 0.08 | 0.09 | 0.09 | 90 | 1007.0 |
| 20260506125025 | 58 | 212 | 0.0 | 0.9 | 0.08 | 0.08 | 0.08 | 89 | 1007.3 |
| 20260506124025 | 59 | 211 | 0.0 | 2.6 | 0.05 | 0.05 | 0.05 | 88 | 1007.4 |
| 20260506122025 | 60 | 270 | 1.7 | 7.0 | 0.03 | 0.03 | 0.03 | 83 | 1007.4 |
| 20260506121024 | 60 | 182 | 2.6 | 4.3 | 0.02 | 0.02 | 0.02 | 80 | 1007.3 |
| 20260506120025 | 61 | 180 | 0.9 | 2.6 | 0.01 | 0.01 | 0.01 | 76 | 1007.2 |
| 20260506115025 | 61 | 193 | 0.0 | 0.9 | 0.00 | 0.00 | 0.00 | 75 | 1006.9 |
| 20260506114025 | 62 | 259 | 0.0 | 0.0 | 0.00 | 0.00 | 0.00 | 71 | 1006.8 |
| 20260506113025 | 62 | 271 | 0.0 | 0.0 | 0.00 | 0.00 | 0.00 | 68 | 1006.8 |
| 20260506112025 | 63 | 271 | 0.0 | 0.0 | 0.00 | 0.00 | 0.00 | 67 | 1006.9 |
| 20260506111025 | 63 | 271 | 0.0 | 0.0 | 0.00 | 0.00 | 0.00 | 64 | 1006.7 |
| 20260506110025 | 64 | 270 | 0.0 | 0.0 | 0.00 | 0.00 | 0.00 | 60 | 1006.6 |
| 20260506105025 | 64 | 271 | 0.0 | 0.0 | 0.00 | 0.00 | 0.00 | 60 | 1006.4 |
| 20260506104025 | 64 | 271 | 0.0 | 2.6 | 0.00 | 0.00 | 0.00 | 60 | 1006.3 |
| 20260506103025 | 65 | 271 | 0.0 | 2.6 | 0.00 | 0.00 | 0.00 | 60 | 1006.2 |
| 20260506102025 | 65 | 231 | 0.9 | 4.3 | 0.00 | 0.00 | 0.00 | 60 | 1006.4 |
| 20260506101025 | 65 | 160 | 1.7 | 4.3 | 0.00 | 0.00 | 0.00 | 60 | 1006.0 |
| 20260506095025 | 65 | 156 | 1.7 | 7.0 | 0.00 | 0.00 | 0.00 | 57 | 1006.1 |
| 20260506093025 | 66 | 165 | 1.7 | 4.3 | 0.00 | 0.00 | 0.00 | 55 | 1006.1 |
| 20260506092025 | 66 | 163 | 1.7 | 2.6 | 0.00 | 0.00 | 0.00 | 54 | 1006.0 |
| 20260506091025 | 66 | 156 | 0.9 | 2.6 | 0.00 | 0.00 | 0.00 | 54 | 1006.2 |
| 20260506090025 | 66 | 175 | 0.9 | 2.6 | 0.00 | 0.00 | 0.00 | 54 | 1006.1 |
| 20260506085025 | 66 | 164 | 0.0 | 2.6 | 0.00 | 0.00 | 0.00 | 53 | 1006.2 |
| 20260506084025 | 66 | 170 | 0.0 | 2.6 | 0.00 | 0.00 | 0.00 | 53 | 1006.2 |
| 20260506082024 | 65 | 191 | 0.9 | 4.3 | 0.00 | 0.00 | 0.00 | 52 | 1006.2 |
| 20260506081025 | 65 | 200 | 0.0 | 2.6 | 0.00 | 0.00 | 0.00 | 53 | 1006.4 |
| 20260506073025 | 66 | 181 | 1.7 | 2.6 | 0.00 | 0.00 | 0.00 | 49 | 1006.4 |
| 20260506072025 | 66 | 190 | 1.7 | 4.3 | 0.00 | 0.00 | 0.00 | 49 | 1006.4 |
| 20260506071025 | 66 | 174 | 1.7 | 2.6 | 0.00 | 0.00 | 0.00 | 49 | 1006.3 |
| 20260506062026 | 67 | 166 | 1.7 | 4.3 | 0.00 | 0.00 | 0.00 | 48 | 1006.9 |
| 20260506061025 | 67 | 168 | 0.9 | 2.6 | 0.00 | 0.00 | 0.00 | 47 | 1007.1 |
| 20260506051025 | 67 | 164 | 2.6 | 4.3 | 0.00 | 0.00 | 0.00 | 47 | 1007.6 |
| 20260506045025 | 67 | 161 | 1.7 | 5.2 | 0.00 | 0.00 | 0.00 | 48 | 1007.7 |
| 20260506044025 | 67 | 164 | 1.7 | 4.3 | 0.00 | 0.00 | 0.00 | 49 | 1007.7 |
| 20260506043025 | 67 | 162 | 1.7 | 2.6 | 0.00 | 0.00 | 0.00 | 49 | 1007.5 |
| 20260506042025 | 68 | 168 | 1.7 | 4.3 | 0.00 | 0.00 | 0.00 | 48 | 1007.4 |
| 20260506041025 | 68 | 164 | 1.7 | 2.6 | 0.00 | 0.00 | 0.00 | 48 | 1007.5 |